Weather History for KPNM - October, 2012

Change the Weather History Date:

Wednesday, October 31, 2012

  Actual Average Record
Temperature  
Mean Temperature 32 °F -  
Max Temperature 51 °F 46 °F 68 °F (2000)
Min Temperature 14 °F 30 °F 1 °F (1999)
Degree Days  
Heating Degree Days 32    
Moisture  
Dew Point 19 °F    
Average Humidity 63    
Maximum Humidity 93    
Minimum Humidity 22    
Precipitation  
Precipitation 0.00 in - - ()
Sea Level Pressure  
Sea Level Pressure 30.00 in    
Wind  
Wind Speed 1 mph (WNW)    
Max Wind Speed 9 mph    
Max Gust Speed -    
Visibility 10 miles    
Events      
Averages and records for this station are not official NWS values.
T = Trace of Precipitation, MM = Missing Value Source: NWS Daily Summary

Daily Weather History Graph

Daily Weather History Graph

Search for Another Location

Airport or City:

Trip Planner

Search our weather history database for the weather conditions in past years. The results will help you decide how hot, cold, wet, or windy it might be!

Date:

Astronomy

Oct. 31, 2012 Rise Set
Actual Time 7:53 AM CDT 6:02 PM CDT
Civil Twilight 7:22 AM CDT 6:32 PM CDT
Nautical Twilight 6:47 AM CDT 7:07 PM CDT
Astronomical Twilight 6:12 AM CDT 7:42 PM CDT
Moon 7:07 PM CDT (10/31) 9:40 AM CDT (10/31)
Length of Visible Light 11h 10m
Length of Day
10h 08m
Full, 97% of the Moon is Illuminated
Oct 31
Full
Nov 6
Last Quarter
Nov 13
New
Nov 20
First Quarter
Nov 28
Full

Hourly Weather History & Observations

Time (CDT) Temp. Windchill Dew Point Humidity Pressure Visibility Wind Dir Wind Speed Gust Speed Precip Events Conditions
12:31 AM 19.4 °F - 15.8 °F 86% 30.07 in 10.0 mi Calm Calm - N/A   Clear
12:51 AM 21.2 °F - 15.8 °F 80% 30.07 in 10.0 mi Calm Calm - N/A   Clear
1:11 AM 19.4 °F - 15.8 °F 86% 30.08 in 10.0 mi Calm Calm - N/A   Clear
1:31 AM 21.2 °F 16.4 °F 15.8 °F 80% 30.08 in 10.0 mi WNW 3.5 mph - N/A   Clear
1:51 AM 19.4 °F - 15.8 °F 86% 30.07 in 10.0 mi Calm Calm - N/A   Clear
2:11 AM 19.4 °F - 15.8 °F 86% 30.06 in 10.0 mi Calm Calm - N/A   Clear
2:31 AM 19.4 °F - 15.8 °F 86% 30.06 in 10.0 mi Calm Calm - N/A   Clear
2:51 AM 17.6 °F 10.7 °F 12.2 °F 79% 30.07 in 10.0 mi West 4.6 mph - N/A   Clear
3:11 AM 19.4 °F - 15.8 °F 86% 30.06 in 10.0 mi Calm Calm - N/A   Clear
3:31 AM 21.2 °F - 14.0 °F 74% 30.05 in 10.0 mi Calm Calm - N/A   Clear
3:51 AM 19.4 °F - 14.0 °F 80% 30.06 in 10.0 mi Calm Calm - N/A   Clear
4:11 AM 17.6 °F - 12.2 °F 79% 30.05 in 10.0 mi Calm Calm - N/A   Clear
4:31 AM 17.6 °F - 14.0 °F 86% 30.05 in 10.0 mi Calm Calm - N/A   Clear
4:51 AM 19.4 °F - 15.8 °F 86% 30.05 in 10.0 mi Calm Calm - N/A   Clear
5:11 AM 19.4 °F - 14.0 °F 80% 30.04 in 10.0 mi Calm Calm - N/A   Clear
5:31 AM 17.6 °F - 12.2 °F 79% 30.04 in 10.0 mi Calm Calm - N/A   Clear
5:51 AM 17.6 °F - 14.0 °F 86% 30.04 in 10.0 mi Calm Calm - N/A   Clear
6:11 AM 17.6 °F - 14.0 °F 86% 30.04 in 10.0 mi Calm Calm - N/A   Clear
6:31 AM 17.6 °F - 15.8 °F 93% 30.04 in 10.0 mi Calm Calm - N/A   Clear
6:51 AM 17.6 °F - 14.0 °F 86% 30.03 in 10.0 mi Calm Calm - N/A   Clear
7:11 AM 15.8 °F - 12.2 °F 86% 30.03 in 10.0 mi Calm Calm - N/A   Clear
7:31 AM 14.0 °F - 10.4 °F 86% 30.04 in 10.0 mi Calm Calm - N/A   Clear
7:51 AM 14.0 °F - 10.4 °F 86% 30.04 in 10.0 mi Calm Calm - N/A   Clear
8:11 AM 15.8 °F - 14.0 °F 93% 30.04 in 10.0 mi Calm Calm - N/A   Clear
8:31 AM 17.6 °F - 15.8 °F 93% 30.04 in 10.0 mi Calm Calm - N/A   Clear
8:51 AM 21.2 °F - 17.6 °F 86% 30.04 in 10.0 mi Calm Calm - N/A   Clear
9:11 AM 26.6 °F - 21.2 °F 80% 30.04 in 10.0 mi Calm Calm - N/A   Clear
9:31 AM 28.4 °F - 21.2 °F 74% 30.04 in 10.0 mi Calm Calm - N/A   Clear
9:51 AM 30.2 °F 25.4 °F 21.2 °F 69% 30.05 in 10.0 mi North 4.6 mph - N/A   Clear
10:11 AM 32.0 °F 27.5 °F 21.2 °F 64% 30.04 in 10.0 mi North 4.6 mph - N/A   Clear
10:31 AM 33.8 °F 30.8 °F 23.0 °F 65% 30.04 in 10.0 mi NNW 3.5 mph - N/A   Clear
10:51 AM 35.6 °F 29.9 °F 23.0 °F 60% 30.04 in 10.0 mi NW 6.9 mph - N/A   Clear
11:16 AM 37.4 °F 33.8 °F 23.0 °F 56% 30.03 in 10.0 mi NNW 4.6 mph - N/A   Clear
11:32 AM 39.2 °F 33.6 °F 21.2 °F 49% 30.03 in 10.0 mi NNW 8.1 mph - N/A   Clear
11:51 AM 41.0 °F 35.8 °F 23.0 °F 49% 30.03 in 10.0 mi WNW 8.1 mph - N/A   Clear
12:11 PM 42.8 °F 37.5 °F 21.2 °F 42% 30.03 in 10.0 mi West 9.2 mph - N/A   Clear
12:31 PM 42.8 °F 38.6 °F 19.4 °F 39% 30.02 in 10.0 mi WNW 6.9 mph - N/A   Clear
12:51 PM 44.6 °F 43.1 °F 19.4 °F 37% 30.01 in 10.0 mi WNW 3.5 mph - N/A   Clear
1:31 PM 46.4 °F 42.9 °F 17.6 °F 32% 29.99 in 10.0 mi NW 6.9 mph - N/A   Clear
2:12 PM 48.2 °F - 14.0 °F 25% 29.97 in 10.0 mi West 5.8 mph - N/A   Clear
2:51 PM 50.0 °F - 12.2 °F 22% 29.96 in 10.0 mi WNW 6.9 mph - N/A   Clear
3:12 PM 51.8 °F - 15.8 °F 24% 29.96 in 10.0 mi West 8.1 mph - N/A   Clear
3:31 PM 51.8 °F - 15.8 °F 24% 29.96 in 10.0 mi WNW 5.8 mph - N/A   Clear
3:51 PM 51.8 °F - 17.6 °F 26% 29.96 in 10.0 mi WNW 8.1 mph - N/A   Clear
4:12 PM 50.0 °F - 17.6 °F 28% 29.96 in 10.0 mi West 6.9 mph - N/A   Clear
4:31 PM 48.2 °F - 17.6 °F 30% 29.95 in 10.0 mi NW 4.6 mph - N/A   Clear
4:51 PM 48.2 °F - 19.4 °F 32% 29.95 in 10.0 mi Calm Calm - N/A   Clear
5:11 PM 50.0 °F - 19.4 °F 30% 29.95 in 10.0 mi West 4.6 mph - N/A   Mostly Cloudy
5:31 PM 48.2 °F - 19.4 °F 32% 29.95 in 10.0 mi WNW 4.6 mph - N/A   Scattered Clouds
5:52 PM 44.6 °F - 21.2 °F 39% 29.95 in 10.0 mi Calm Calm - N/A   Scattered Clouds
6:11 PM 42.8 °F - 21.2 °F 42% 29.95 in 10.0 mi Calm Calm - N/A   Scattered Clouds
6:31 PM 42.8 °F - 21.2 °F 42% 29.95 in 10.0 mi Calm Calm - N/A   Clear
6:52 PM 37.4 °F - 21.2 °F 52% 29.94 in 10.0 mi Calm Calm - N/A   Scattered Clouds
7:11 PM 37.4 °F - 21.2 °F 52% 29.94 in 10.0 mi Calm Calm - N/A   Mostly Cloudy
7:31 PM 39.2 °F - 24.8 °F 56% 29.94 in 10.0 mi Calm Calm - N/A   Overcast
7:52 PM 39.2 °F - 26.6 °F 61% 29.94 in 10.0 mi Calm Calm - N/A   Overcast
8:11 PM 41.0 °F - 26.6 °F 57% 29.94 in 10.0 mi Calm Calm - N/A   Overcast
8:31 PM 41.0 °F - 26.6 °F 57% 29.94 in 10.0 mi Calm Calm - N/A   Overcast
8:51 PM 41.0 °F - 26.6 °F 57% 29.94 in 10.0 mi Calm Calm - N/A   Overcast
9:11 PM 41.0 °F - 26.6 °F 57% 29.94 in 10.0 mi Calm Calm - N/A   Overcast
9:31 PM 42.8 °F - 28.4 °F 57% 29.94 in 10.0 mi Calm Calm - N/A   Overcast
9:51 PM 39.2 °F - 28.4 °F 65% 29.93 in 10.0 mi Calm Calm - N/A   Overcast
10:11 PM 39.2 °F - 28.4 °F 65% 29.93 in 10.0 mi Calm Calm - N/A   Overcast
10:31 PM 39.2 °F - 28.4 °F 65% 29.93 in 10.0 mi Calm Calm - N/A   Light Drizzle
10:51 PM 39.2 °F - 28.4 °F 65% 29.93 in 10.0 mi Calm Calm - N/A   Overcast
11:11 PM 39.2 °F - 26.6 °F 61% 29.92 in 10.0 mi Calm Calm - N/A   Mostly Cloudy
11:31 PM 35.6 °F - 26.6 °F 70% 29.92 in 10.0 mi Calm Calm - N/A   Scattered Clouds
11:51 PM 35.6 °F - 24.8 °F 65% 29.92 in 10.0 mi Calm Calm - N/A   Mostly Cloudy